User: anonymous   Login
Location: Unspecified
(0.0000°N, 0.0000°E)
Time: 08:57:05
(UTC+00:00)
Language:

TBA - TO BE ASSIGNED - Orbit

View from above orbital plane
View from above orbital plane
View from above satellite
View from above satellite

Ground track
Ground track

The orbit is defined by the following mean orbital elements,

1 68855U          26145.58335647 +.00000000 +00000-0 -59816-3 0 00007
2 68855  97.2850 160.3851 0001518  89.2686  12.0676 15.49208860    08
Epoch (UTC): 25 May 2026 14:00:01
Eccentricity: 0.0001518
inclination: 97.2850°
perigee height: 418 km
apogee height: 420 km
right ascension of ascending node: 160.3851°
argument of perigee: 89.2686°
revolutions per day: 15.49208860
mean anomaly at epoch: 12.0676°

The dashed part of the orbit path shows where the satellite is in the earth's shadow,  

DLR